Regional Weather Roundup
Issued by NWS Charleston, SC

Current Version | Previous Version | Text Only | Print | Product List | Glossary Off
Versions: 1 2 3 4 5 6 7 8 9 10 11 12 13 14 15 16 17 18 19 20 21 22 23 24 25 26 27 28 29 30 31 32 33 34 35 36 37 38 39 40 41 42 43 44 45 46 47 48 49 50
000 ASUS42 KCHS 161410 RWRCHS REGIONAL WEATHER ROUNDUP NATIONAL WEATHER SERVICE CHARLESTON SC 1000 AM EDT WED APR 16 2014 NOTE: "FAIR" INDICATES FEW OR NO CLOUDS BELOW 12,000 FEET WITH NO SIGNIFICANT WEATHER AND/OR OBSTRUCTIONS TO VISIBILITY. NOT ALL STATIONS ARE QUALITY CONTROLLED BY THE NATIONAL WEATHER SERVICE. USE DATA WITH CAUTION...ESPECIALLY DEWPOINT OBSERVATIONS. SCZ027-030-031-034>040-042>050-161500- ...SOUTH CAROLINA... CITY SKY/WX TMP DP RH WIND PRES REMARKS N CHARLESTON MOSUNNY 49 31 49 NE20G26 30.30R WATERFRONT PRK N/A 46 N/A N/A N22 N/A FORT JOHNSON NOT AVBL MOUNT PLEASANT CLOUDY N/A N/A N/A N8G21 30.29R JOHNS ISLAND CLOUDY 48 36 61 NE13 30.30R PINOPOLIS N/A 45 32 61 NE17 30.22R MONCKS CORNER FAIR 46 34 61 NE10G22 30.31R SUMMERVILLE FAIR 46 32 57 N14 30.30R BEAUFORT MCAS MOSUNNY 48 32 53 E20 30.29 BEAUFORT ARPT FAIR 46 36 66 NE18G25 30.29R HILTON HEAD IS SUNNY 46 34 61 N14G23 30.28R GEORGETOWN NOT AVBL WALTERBORO SUNNY 46 32 57 NE15G24 30.31R ORANGEBURG SUNNY 44 24 45 NE16G25 30.33R BARNWELL FAIR 46 28 49 NE12G23 30.32R AIKEN FAIR 45 28 53 NE17G24 30.34R MANNING FAIR 46 23 39 NE14 30.33R KINGSTREE NOT AVBL COLUMBIA SUNNY 46 22 38 NE12G22 30.33R SUMTER SUNNY 44 26 47 NE20 30.33R FLORENCE SUNNY 44 24 45 NE17 30.35R MYRTLE BEACH NOT AVBL N MYRTLE BEACH SUNNY 47 34 60 N13G22 30.29R $$ GAZ063-065-086>088-099>101-113>116-118-119-134-136>141-150-161500- ...GEORGIA... CITY SKY/WX TMP DP RH WIND PRES REMARKS SAVANNAH ARPT MOSUNNY 49 32 52 NE16 30.29R HUNTER AAF SUNNY 49 33 55 NE10G18 30.27R FORT STEWART SUNNY 48 35 62 NE16G22 30.26R STATESBORO NOT AVBL SYLVANIA SUNNY 48 31 52 NE10G18 30.31R CLAXTON FAIR 46 34 61 NE15G22 30.28S THOMSON SUNNY 44 31 60 NE12 30.35S AUGUSTA-BUSH SUNNY 47 24 40 NE17 30.32R AUGUSTA-DANIEL SUNNY 46 23 40 NE17 30.32R SWAINSBORO FAIR 45 32 61 E10G18 30.30R VIDALIA SUNNY 46 32 57 NE15G24 30.27S ALMA SUNNY 48 31 51 NE9G22 30.24R WAYCROSS NOT AVBL JESUP FAIR 46 36 66 E15 30.25R BRUNSWICK CLOUDY 54 43 66 NE21G28 30.25R SAINT SIMONS LGT RAIN 52 40 63 NE21 30.23R $$ SCZ027-028-034-036>038-045-046-048>050-GAZ119-141-161500- ...LAKE AND SUPPLEMENTAL COASTAL OBSERVATIONS... STATION/POSITION TIME TEMP WIND PRES WAVE SWELL AIR SEA DIR/SP/G HT/PER HT/PER/DIR (UTC) (F) (DEG/KT/KT) (MB) (FT/S) (FT/S/D) UPR LAKE MARION NOT AVBL WINYAH BAY 1300 43 360/ 10 1024.0S LAKE MURRAY 1300 42 40/ 5/ 10 1026.4R ACE BASIN NERRS 1300 44 20/ 7 1024.0S FORT PULASKI 1400 47 60 40/ 16/ 20 1025.4R SAPELO ISLAND 1300 50 30/ 17 1022.0S $$ ANZ086-088-AMZ330-350-352-354-374-454-470-161500- ...C-MAN AND BUOY OBSERVATIONS... STATION/POSITION TIME TEMP WIND PRES WAVE SWELL AIR SEA DIR/SP/G HT/PER HT/PER/DIR (UTC) (F) (DEG/KT/KT) (MB) (FT/S) (FT/S/D) FOLLY BEACH CMAN 1400 46 10/ 18/ 22 1025.9R BUOY 41004 NOT AVBL BUOY 41008 1400 51 63 30/ 23/ 27 1023.0R 8/ 7 5E ST. MARYS GA 1400 65 N/A 7/ 6 FRYING PAN BUOY 1400 45 65 30/ 25/ 31 1023.9R 10/ 8 BUOY 41025 NOT AVBL CAPE LOOKOUT NC 1400 43 360/ 20/ 24 1025.8R BUOY 41002 NOT AVBL BUOY 41010 1400 70 76 20/ 21/ 25 1017.3R 7/ 7 BUOY 41012 NOT AVBL ST AUGUSTINE FL 1400 60 30/ 26/ 28 1021.4R $$

USA.gov is the U.S. government's official web portal to all federal, state and local government web resources and services.